| time (UTC) | temp F | wind direction | speed knots | gust knots | rain 1hr in | rain 24hr in | rain mn in | humidity % | barometer mb |
| 20260503002420 | 35 | 292 | 0.0 | 0.0 | 0.00 | 0.00 | 0.00 | 85 | 1018.0 |
| 20260503001920 | 35 | 292 | 0.0 | 0.0 | 0.00 | 0.00 | 0.00 | 85 | 1018.0 |
| 20260503001420 | 35 | 292 | 0.0 | 1.7 | 0.00 | 0.00 | 0.00 | 85 | 1018.0 |
| 20260503000919 | 35 | 292 | 0.0 | 0.0 | 0.00 | 0.00 | 0.00 | 85 | 1018.0 |
| 20260503000419 | 35 | 292 | 0.0 | 0.0 | 0.00 | 0.00 | 0.00 | 85 | 1018.1 |
| 20260502235919 | 35 | 292 | 0.0 | 0.0 | 0.00 | 0.00 | 0.00 | 85 | 1018.1 |
| 20260502235419 | 35 | 292 | 0.0 | 0.9 | 0.00 | 0.00 | 0.00 | 85 | 1018.1 |
| 20260502234918 | 35 | 292 | 0.0 | 0.0 | 0.00 | 0.00 | 0.00 | 84 | 1018.0 |
| 20260502234418 | 35 | 292 | 0.0 | 0.9 | 0.00 | 0.00 | 0.00 | 84 | 1018.1 |
| 20260502233918 | 35 | 292 | 0.0 | 1.7 | 0.00 | 0.00 | 0.00 | 83 | 1018.1 |
| 20260502233417 | 35 | 292 | 0.0 | 1.7 | 0.00 | 0.00 | 0.00 | 83 | 1018.1 |
| 20260502232917 | 36 | 292 | 0.0 | 1.7 | 0.00 | 0.00 | 0.00 | 83 | 1018.1 |
| 20260502232417 | 36 | 292 | 0.0 | 0.0 | 0.00 | 0.00 | 0.00 | 82 | 1018.0 |
| 20260502231917 | 36 | 292 | 0.0 | 1.7 | 0.00 | 0.00 | 0.00 | 82 | 1017.9 |
| 20260502231416 | 36 | 225 | 0.0 | 0.0 | 0.00 | 0.00 | 0.00 | 82 | 1017.9 |
| 20260502230916 | 36 | 225 | 0.0 | 0.0 | 0.00 | 0.00 | 0.00 | 82 | 1017.9 |
| 20260502230416 | 37 | 225 | 0.0 | 0.0 | 0.00 | 0.00 | 0.00 | 82 | 1017.9 |
| 20260502225915 | 37 | 225 | 0.0 | 0.0 | 0.00 | 0.00 | 0.00 | 82 | 1018.1 |
| 20260502225415 | 37 | 225 | 0.0 | 0.0 | 0.00 | 0.00 | 0.00 | 82 | 1018.1 |
| 20260502224915 | 37 | 225 | 0.0 | 0.0 | 0.00 | 0.00 | 0.00 | 82 | 1018.2 |
| 20260502224415 | 37 | 225 | 0.0 | 0.0 | 0.00 | 0.00 | 0.00 | 82 | 1018.3 |
| 20260502223914 | 37 | 225 | 0.0 | 0.0 | 0.00 | 0.00 | 0.00 | 82 | 1018.3 |
| 20260502223414 | 37 | 225 | 0.0 | 0.0 | 0.00 | 0.00 | 0.00 | 82 | 1018.3 |
| 20260502222914 | 37 | 225 | 0.0 | 0.0 | 0.00 | 0.00 | 0.00 | 82 | 1018.4 |
| 20260502222413 | 38 | 225 | 0.0 | 0.0 | 0.00 | 0.00 | 0.00 | 82 | 1018.3 |
| 20260502221913 | 38 | 292 | 0.0 | 0.0 | 0.00 | 0.00 | 0.00 | 83 | 1018.4 |
| 20260502221413 | 38 | 315 | 0.0 | 0.0 | 0.00 | 0.00 | 0.00 | 83 | 1018.4 |
| 20260502220912 | 38 | 292 | 0.0 | 0.0 | 0.00 | 0.00 | 0.00 | 83 | 1018.4 |
| 20260502220412 | 38 | 292 | 0.0 | 0.0 | 0.00 | 0.00 | 0.00 | 84 | 1018.4 |
| 20260502215912 | 38 | 292 | 0.0 | 0.0 | 0.00 | 0.00 | 0.00 | 83 | 1018.4 |
| 20260502215412 | 38 | 292 | 0.0 | 0.0 | 0.00 | 0.00 | 0.00 | 83 | 1018.5 |
| 20260502214911 | 38 | 292 | 0.0 | 0.0 | 0.00 | 0.00 | 0.00 | 84 | 1018.6 |
| 20260502214411 | 38 | 292 | 0.0 | 0.0 | 0.00 | 0.00 | 0.00 | 84 | 1018.5 |
| 20260502213911 | 39 | 292 | 0.0 | 0.0 | 0.00 | 0.00 | 0.00 | 84 | 1018.6 |
| 20260502213410 | 39 | 292 | 0.0 | 0.0 | 0.00 | 0.00 | 0.00 | 84 | 1018.5 |
| 20260502212910 | 39 | 292 | 0.0 | 0.0 | 0.00 | 0.00 | 0.00 | 84 | 1018.4 |
| 20260502212410 | 39 | 292 | 0.0 | 0.0 | 0.00 | 0.00 | 0.00 | 84 | 1018.4 |
| 20260502211910 | 39 | 292 | 0.0 | 0.0 | 0.00 | 0.00 | 0.00 | 84 | 1018.5 |
| 20260502211409 | 39 | 292 | 0.0 | 0.0 | 0.00 | 0.00 | 0.00 | 84 | 1018.6 |
| 20260502210909 | 39 | 292 | 0.0 | 0.0 | 0.00 | 0.00 | 0.00 | 84 | 1018.7 |
| 20260502210409 | 39 | 292 | 0.0 | 0.0 | 0.00 | 0.00 | 0.00 | 83 | 1018.6 |
| 20260502205908 | 39 | 292 | 0.0 | 0.0 | 0.00 | 0.00 | 0.00 | 83 | 1018.6 |
| 20260502205408 | 39 | 292 | 0.0 | 0.0 | 0.00 | 0.00 | 0.00 | 82 | 1018.6 |
| 20260502204908 | 39 | 292 | 0.0 | 0.0 | 0.00 | 0.00 | 0.00 | 83 | 1018.6 |
| 20260502204407 | 39 | 292 | 0.0 | 0.0 | 0.00 | 0.00 | 0.00 | 82 | 1018.6 |
| 20260502203907 | 40 | 292 | 0.0 | 0.0 | 0.00 | 0.00 | 0.00 | 82 | 1018.6 |
| 20260502203407 | 40 | 292 | 0.0 | 0.0 | 0.00 | 0.00 | 0.00 | 82 | 1018.5 |
| 20260502202907 | 40 | 292 | 0.0 | 0.0 | 0.00 | 0.00 | 0.00 | 82 | 1018.5 |
| 20260502202406 | 40 | 292 | 0.0 | 0.0 | 0.00 | 0.00 | 0.00 | 82 | 1018.5 |
| 20260502201906 | 40 | 292 | 0.0 | 0.0 | 0.00 | 0.00 | 0.00 | 82 | 1018.6 |
| 20260502201406 | 40 | 292 | 0.0 | 0.0 | 0.00 | 0.00 | 0.00 | 82 | 1018.6 |
| 20260502200905 | 41 | 292 | 0.0 | 0.0 | 0.00 | 0.00 | 0.00 | 81 | 1018.6 |
| 20260502200405 | 41 | 292 | 0.0 | 0.0 | 0.00 | 0.00 | 0.00 | 80 | 1018.6 |
| 20260502195905 | 41 | 292 | 0.0 | 0.0 | 0.00 | 0.00 | 0.00 | 80 | 1018.5 |
| 20260502195405 | 41 | 292 | 0.0 | 0.0 | 0.00 | 0.00 | 0.00 | 81 | 1018.5 |
| 20260502194904 | 41 | 292 | 0.0 | 0.0 | 0.00 | 0.00 | 0.00 | 81 | 1018.6 |
| 20260502194404 | 41 | 292 | 0.0 | 0.0 | 0.00 | 0.00 | 0.00 | 81 | 1018.5 |
| 20260502193904 | 41 | 292 | 0.0 | 0.0 | 0.00 | 0.00 | 0.00 | 81 | 1018.7 |
| 20260502193403 | 41 | 292 | 0.0 | 0.0 | 0.00 | 0.00 | 0.00 | 80 | 1018.6 |
| 20260502192903 | 41 | 292 | 0.0 | 0.0 | 0.00 | 0.00 | 0.00 | 80 | 1018.7 |
| 20260502192403 | 41 | 292 | 0.0 | 0.9 | 0.00 | 0.00 | 0.00 | 80 | 1018.6 |
| 20260502191902 | 42 | 247 | 0.0 | 0.0 | 0.00 | 0.00 | 0.00 | 80 | 1018.6 |
| 20260502191402 | 42 | 247 | 0.0 | 0.0 | 0.00 | 0.00 | 0.00 | 80 | 1018.7 |
| 20260502190902 | 42 | 247 | 0.0 | 0.0 | 0.00 | 0.00 | 0.00 | 80 | 1018.6 |
| 20260502190402 | 42 | 247 | 0.0 | 0.0 | 0.00 | 0.00 | 0.00 | 80 | 1018.5 |
| 20260502185901 | 42 | 247 | 0.0 | 0.0 | 0.00 | 0.00 | 0.00 | 79 | 1018.5 |
| 20260502185401 | 42 | 247 | 0.0 | 0.0 | 0.00 | 0.00 | 0.00 | 79 | 1018.4 |
| 20260502184901 | 42 | 247 | 0.0 | 0.0 | 0.00 | 0.00 | 0.00 | 78 | 1018.4 |
| 20260502184400 | 42 | 247 | 0.0 | 0.0 | 0.00 | 0.00 | 0.00 | 78 | 1018.3 |
| 20260502183900 | 42 | 247 | 0.0 | 0.0 | 0.00 | 0.00 | 0.00 | 78 | 1018.3 |
| 20260502183400 | 43 | 247 | 0.0 | 0.0 | 0.00 | 0.00 | 0.00 | 78 | 1018.4 |
| 20260502182900 | 43 | 247 | 0.0 | 0.0 | 0.00 | 0.00 | 0.00 | 78 | 1018.3 |
| 20260502182359 | 43 | 247 | 0.0 | 0.0 | 0.00 | 0.00 | 0.00 | 78 | 1018.3 |
| 20260502181859 | 43 | 247 | 0.0 | 0.0 | 0.00 | 0.00 | 0.00 | 78 | 1018.3 |
| 20260502181359 | 43 | 247 | 0.0 | 0.0 | 0.00 | 0.00 | 0.00 | 78 | 1018.3 |
| 20260502180858 | 43 | 247 | 0.0 | 0.0 | 0.00 | 0.00 | 0.00 | 78 | 1018.2 |
| 20260502180358 | 43 | 247 | 0.0 | 0.0 | 0.00 | 0.00 | 0.00 | 77 | 1018.2 |
| 20260502170355 | 45 | 247 | 0.9 | 4.3 | 0.00 | 0.00 | 0.00 | 75 | 1018.1 |
| 20260502163853 | 46 | 315 | 0.0 | 0.0 | 0.00 | 0.00 | 0.00 | 73 | 1017.8 |
| 20260502163353 | 46 | 315 | 0.0 | 0.0 | 0.00 | 0.00 | 0.00 | 74 | 1017.9 |
| 20260502162853 | 46 | 315 | 0.0 | 0.0 | 0.00 | 0.00 | 0.00 | 74 | 1017.9 |
| 20260502162352 | 46 | 315 | 0.0 | 0.9 | 0.00 | 0.00 | 0.00 | 74 | 1017.9 |
| 20260502161852 | 46 | 292 | 0.0 | 1.7 | 0.00 | 0.00 | 0.00 | 75 | 1017.9 |
| 20260502161352 | 46 | 292 | 0.9 | 2.6 | 0.00 | 0.00 | 0.00 | 75 | 1017.8 |
| 20260502160851 | 46 | 315 | 0.0 | 1.7 | 0.00 | 0.00 | 0.00 | 75 | 1017.9 |
| 20260502160351 | 46 | 337 | 0.0 | 0.0 | 0.00 | 0.00 | 0.00 | 74 | 1017.9 |
| 20260502151848 | 44 | 45 | 0.0 | 0.0 | 0.00 | 0.00 | 0.00 | 76 | 1018.0 |
| 20260502151348 | 44 | 45 | 0.0 | 0.0 | 0.00 | 0.00 | 0.00 | 76 | 1018.0 |
| 20260502150848 | 43 | 45 | 0.0 | 0.0 | 0.00 | 0.00 | 0.00 | 76 | 1018.1 |
| 20260502150348 | 43 | 45 | 0.0 | 3.5 | 0.00 | 0.00 | 0.00 | 76 | 1018.2 |
| 20260502130340 | 44 | 67 | 9.6 | 13.9 | 0.00 | 0.00 | 0.00 | 79 | 1018.6 |
| 20260502123339 | 44 | 22 | 3.5 | 6.1 | 0.00 | 0.00 | 0.00 | 76 | 1018.5 |
| 20260502122838 | 45 | 22 | 0.9 | 7.0 | 0.00 | 0.00 | 0.00 | 75 | 1018.6 |
| 20260502122338 | 45 | 45 | 1.7 | 7.0 | 0.00 | 0.00 | 0.00 | 75 | 1018.6 |
| 20260502121838 | 45 | 45 | 1.7 | 1.7 | 0.00 | 0.00 | 0.00 | 74 | 1018.5 |
| 20260502121338 | 44 | 45 | 0.9 | 1.7 | 0.00 | 0.00 | 0.00 | 75 | 1018.5 |
| 20260502120837 | 44 | 67 | 0.0 | 3.5 | 0.00 | 0.00 | 0.00 | 75 | 1018.5 |
| 20260502120337 | 44 | 45 | 0.9 | 7.8 | 0.00 | 0.00 | 0.00 | 74 | 1018.5 |
| 20260502115837 | 44 | 45 | 4.3 | 7.8 | 0.00 | 0.00 | 0.00 | 73 | 1018.5 |
| 20260502115336 | 45 | 45 | 0.9 | 3.5 | 0.00 | 0.00 | 0.00 | 71 | 1018.6 |
| 20260502114836 | 46 | 315 | 1.7 | 7.8 | 0.00 | 0.00 | 0.00 | 67 | 1018.8 |
| 20260502114336 | 48 | 0 | 4.3 | 5.2 | 0.00 | 0.00 | 0.00 | 65 | 1018.6 |
| 20260502113836 | 50 | 292 | 1.7 | 9.6 | 0.00 | 0.00 | 0.00 | 60 | 1018.6 |
| 20260502113335 | 52 | 337 | 7.0 | 11.3 | 0.00 | 0.00 | 0.00 | 59 | 1018.5 |
| 20260502112835 | 53 | 292 | 3.5 | 8.7 | 0.00 | 0.00 | 0.00 | 57 | 1018.4 |
| 20260502112335 | 53 | 292 | 5.2 | 7.0 | 0.00 | 0.00 | 0.00 | 54 | 1018.3 |
| 20260502111834 | 53 | 292 | 3.5 | 5.2 | 0.00 | 0.00 | 0.00 | 53 | 1018.3 |
| 20260502111334 | 53 | 0 | 3.5 | 4.3 | 0.00 | 0.00 | 0.00 | 52 | 1018.3 |
| 20260502110834 | 54 | 0 | 0.9 | 5.2 | 0.00 | 0.00 | 0.00 | 53 | 1018.3 |
| 20260502110333 | 55 | 22 | 4.3 | 5.2 | 0.00 | 0.00 | 0.00 | 52 | 1018.3 |
| 20260502105833 | 56 | 0 | 2.6 | 5.2 | 0.00 | 0.00 | 0.00 | 53 | 1018.3 |
| 20260502105333 | 56 | 157 | 0.0 | 2.6 | 0.00 | 0.00 | 0.00 | 55 | 1018.3 |
| 20260502104833 | 55 | 67 | 0.9 | 4.3 | 0.00 | 0.00 | 0.00 | 55 | 1018.3 |
| 20260502104332 | 55 | 67 | 3.5 | 4.3 | 0.00 | 0.00 | 0.00 | 55 | 1018.4 |
| 20260502103832 | 55 | 67 | 0.0 | 5.2 | 0.00 | 0.00 | 0.00 | 56 | 1018.4 |
| 20260502103332 | 55 | 90 | 2.6 | 2.6 | 0.00 | 0.00 | 0.00 | 60 | 1018.5 |
| 20260502102831 | 53 | 225 | 0.9 | 5.2 | 0.00 | 0.00 | 0.00 | 62 | 1018.6 |
| 20260502102331 | 51 | 135 | 0.0 | 2.6 | 0.00 | 0.00 | 0.00 | 66 | 1018.6 |
| 20260502101831 | 50 | 90 | 0.0 | 2.6 | 0.00 | 0.00 | 0.00 | 65 | 1018.6 |
| 20260502101331 | 49 | 67 | 0.9 | 2.6 | 0.00 | 0.00 | 0.00 | 65 | 1018.7 |
| 20260502100830 | 49 | 135 | 0.0 | 4.3 | 0.00 | 0.00 | 0.00 | 65 | 1018.8 |
| 20260502100330 | 49 | 67 | 1.7 | 3.5 | 0.00 | 0.00 | 0.00 | 65 | 1019.0 |
| 20260502091327 | 43 | 45 | 4.3 | 7.0 | 0.00 | 0.00 | 0.00 | 72 | 1019.5 |
| 20260502090827 | 44 | 67 | 6.1 | 8.7 | 0.00 | 0.00 | 0.00 | 72 | 1019.5 |
| 20260502090326 | 44 | 45 | 3.5 | 9.6 | 0.00 | 0.00 | 0.00 | 71 | 1019.4 |
| 20260502071320 | 50 | 67 | 1.7 | 4.3 | 0.00 | 0.00 | 0.00 | 53 | 1018.9 |
| 20260502070820 | 51 | 22 | 1.7 | 4.3 | 0.00 | 0.00 | 0.00 | 53 | 1018.8 |
| 20260502070319 | 50 | 45 | 0.0 | 1.7 | 0.00 | 0.00 | 0.00 | 54 | 1018.8 |
| 20260502065819 | 51 | 45 | 0.9 | 5.2 | 0.00 | 0.00 | 0.00 | 54 | 1018.8 |
| 20260502065319 | 51 | 67 | 0.9 | 5.2 | 0.00 | 0.00 | 0.00 | 54 | 1018.8 |
| 20260502064819 | 51 | 67 | 0.0 | 1.7 | 0.00 | 0.00 | 0.00 | 54 | 1018.7 |
| 20260502064318 | 51 | 67 | 0.0 | 2.6 | 0.00 | 0.00 | 0.00 | 54 | 1018.7 |
| 20260502063818 | 51 | 67 | 0.0 | 2.6 | 0.00 | 0.00 | 0.00 | 54 | 1018.7 |
| 20260502063318 | 51 | 45 | 2.6 | 3.5 | 0.00 | 0.00 | 0.00 | 54 | 1018.8 |
| 20260502062817 | 51 | 67 | 0.9 | 2.6 | 0.00 | 0.00 | 0.00 | 54 | 1018.8 |
| 20260502062317 | 52 | 67 | 0.0 | 3.5 | 0.00 | 0.00 | 0.00 | 55 | 1018.9 |
| 20260502061817 | 51 | 45 | 0.0 | 1.7 | 0.00 | 0.00 | 0.00 | 56 | 1018.7 |
| 20260502061316 | 50 | 45 | 0.0 | 2.6 | 0.00 | 0.00 | 0.00 | 56 | 1018.9 |
| 20260502060816 | 50 | 45 | 0.0 | 3.5 | 0.00 | 0.00 | 0.00 | 56 | 1018.8 |
| 20260502060316 | 51 | 22 | 1.7 | 3.5 | 0.00 | 0.00 | 0.00 | 55 | 1018.8 |
| 20260502055816 | 51 | 22 | 0.0 | 3.5 | 0.00 | 0.00 | 0.00 | 55 | 1018.7 |
| 20260502055315 | 52 | 45 | 0.0 | 4.3 | 0.00 | 0.00 | 0.00 | 54 | 1018.8 |
| 20260502054815 | 54 | 22 | 3.5 | 3.5 | 0.00 | 0.00 | 0.00 | 52 | 1018.8 |
| 20260502054315 | 57 | 22 | 3.5 | 4.3 | 0.00 | 0.00 | 0.00 | 49 | 1018.7 |
| 20260502053814 | 58 | 67 | 0.0 | 1.7 | 0.00 | 0.00 | 0.00 | 49 | 1018.7 |
| 20260502053314 | 59 | 0 | 0.9 | 1.7 | 0.00 | 0.00 | 0.00 | 49 | 1018.6 |
| 20260502052814 | 59 | 0 | 0.0 | 1.7 | 0.00 | 0.00 | 0.00 | 48 | 1018.5 |
| 20260502052314 | 61 | 337 | 0.0 | 0.9 | 0.00 | 0.00 | 0.00 | 49 | 1018.7 |
| 20260502051813 | 59 | 315 | 0.0 | 0.9 | 0.00 | 0.00 | 0.00 | 52 | 1018.6 |
| 20260502051313 | 59 | 315 | 0.0 | 0.0 | 0.00 | 0.00 | 0.00 | 52 | 1018.6 |
| 20260502050813 | 58 | 315 | 0.0 | 1.7 | 0.00 | 0.00 | 0.00 | 53 | 1018.6 |
| 20260502050312 | 58 | 67 | 0.0 | 0.9 | 0.00 | 0.00 | 0.00 | 54 | 1018.5 |
| 20260502045812 | 57 | 67 | 0.0 | 1.7 | 0.00 | 0.00 | 0.00 | 54 | 1018.5 |
| 20260502045312 | 56 | 67 | 0.0 | 0.0 | 0.00 | 0.00 | 0.00 | 55 | 1018.5 |
| 20260502044811 | 55 | 67 | 0.0 | 0.0 | 0.00 | 0.00 | 0.00 | 56 | 1018.5 |
| 20260502044311 | 54 | 67 | 0.0 | 0.0 | 0.00 | 0.00 | 0.00 | 57 | 1018.5 |
| 20260502043811 | 53 | 67 | 0.0 | 0.0 | 0.00 | 0.00 | 0.00 | 58 | 1018.5 |
| 20260502043311 | 52 | 67 | 0.0 | 0.0 | 0.00 | 0.00 | 0.00 | 59 | 1018.4 |
| 20260502042810 | 51 | 67 | 0.0 | 0.0 | 0.00 | 0.00 | 0.00 | 61 | 1018.5 |
| 20260502042310 | 50 | 67 | 0.0 | 0.0 | 0.00 | 0.00 | 0.00 | 62 | 1018.4 |
| 20260502041810 | 50 | 67 | 0.0 | 0.0 | 0.00 | 0.00 | 0.00 | 62 | 1018.5 |
| 20260502041309 | 49 | 67 | 0.0 | 0.9 | 0.00 | 0.00 | 0.00 | 64 | 1018.5 |
| 20260502040809 | 49 | 67 | 0.0 | 0.0 | 0.00 | 0.00 | 0.00 | 65 | 1018.4 |
| 20260502040309 | 49 | 67 | 0.0 | 0.0 | 0.00 | 0.00 | 0.00 | 67 | 1018.4 |
| 20260502035809 | 48 | 67 | 0.0 | 0.0 | 0.00 | 0.00 | 0.00 | 68 | 1018.4 |
| 20260502035308 | 47 | 67 | 0.0 | 0.0 | 0.00 | 0.00 | 0.00 | 71 | 1018.5 |
| 20260502034808 | 45 | 67 | 0.0 | 0.0 | 0.00 | 0.00 | 0.00 | 73 | 1018.4 |
| 20260502034308 | 44 | 67 | 0.0 | 0.0 | 0.00 | 0.00 | 0.00 | 73 | 1018.4 |
| 20260502033807 | 43 | 67 | 0.0 | 0.9 | 0.00 | 0.00 | 0.00 | 74 | 1018.4 |
| 20260502033307 | 42 | 67 | 0.9 | 1.7 | 0.00 | 0.00 | 0.00 | 75 | 1018.4 |
| 20260502032807 | 42 | 67 | 0.0 | 2.6 | 0.00 | 0.00 | 0.00 | 76 | 1018.4 |
| 20260502032307 | 41 | 45 | 1.7 | 1.7 | 0.00 | 0.00 | 0.00 | 76 | 1018.3 |
| 20260502031806 | 41 | 45 | 0.0 | 3.5 | 0.00 | 0.00 | 0.00 | 76 | 1018.4 |
| 20260502031306 | 41 | 67 | 1.7 | 3.5 | 0.00 | 0.00 | 0.00 | 76 | 1018.3 |
| 20260502030806 | 41 | 45 | 1.7 | 3.5 | 0.00 | 0.00 | 0.00 | 75 | 1018.4 |
| 20260502030305 | 42 | 67 | 0.0 | 1.7 | 0.00 | 0.00 | 0.00 | 74 | 1018.4 |
| 20260502025805 | 42 | 45 | 0.9 | 3.5 | 0.00 | 0.00 | 0.00 | 74 | 1018.3 |
| 20260502025306 | 42 | 45 | 1.7 | 1.7 | 0.00 | 0.00 | 0.00 | 74 | 1018.3 |
| 20260502024804 | 42 | 67 | 1.7 | 2.6 | 0.00 | 0.00 | 0.00 | 73 | 1018.3 |
| 20260502024304 | 42 | 22 | 0.9 | 0.9 | 0.00 | 0.00 | 0.00 | 72 | 1018.3 |
| 20260502023804 | 42 | 0 | 0.0 | 0.0 | 0.00 | 0.00 | 0.00 | 72 | 1018.2 |
| 20260502023304 | 42 | 0 | 0.0 | 0.9 | 0.00 | 0.00 | 0.00 | 71 | 1018.3 |
| 20260502022803 | 42 | 0 | 0.0 | 0.0 | 0.00 | 0.00 | 0.00 | 71 | 1018.2 |
| 20260502022306 | 43 | 0 | 0.0 | 0.9 | 0.00 | 0.00 | 0.00 | 70 | 1018.2 |
| 20260502021803 | 43 | 0 | 0.0 | 0.0 | 0.00 | 0.00 | 0.00 | 70 | 1018.2 |
| 20260502021302 | 43 | 0 | 0.0 | 1.7 | 0.00 | 0.00 | 0.00 | 69 | 1018.2 |
| 20260502020802 | 44 | 337 | 0.0 | 1.7 | 0.00 | 0.00 | 0.00 | 68 | 1018.2 |
| 20260502020302 | 44 | 292 | 0.0 | 0.9 | 0.00 | 0.00 | 0.00 | 67 | 1018.2 |
| 20260502015802 | 44 | 292 | 0.0 | 0.0 | 0.00 | 0.00 | 0.00 | 67 | 1018.2 |
| 20260502015305 | 44 | 292 | 0.0 | 0.0 | 0.00 | 0.00 | 0.00 | 67 | 1018.2 |
| 20260502014801 | 44 | 292 | 0.0 | 0.0 | 0.00 | 0.00 | 0.00 | 67 | 1018.2 |
| 20260502014301 | 44 | 292 | 0.0 | 0.0 | 0.00 | 0.00 | 0.00 | 67 | 1018.2 |
| 20260502013800 | 44 | 292 | 0.0 | 0.0 | 0.00 | 0.00 | 0.00 | 66 | 1018.2 |
| 20260502013300 | 44 | 292 | 0.0 | 0.9 | 0.00 | 0.00 | 0.00 | 66 | 1018.2 |
| 20260502012800 | 44 | 292 | 0.9 | 1.7 | 0.00 | 0.00 | 0.00 | 66 | 1018.2 |
| 20260502012259 | 44 | 292 | 0.0 | 0.9 | 0.00 | 0.00 | 0.00 | 66 | 1018.2 |
| 20260502011759 | 44 | 292 | 0.0 | 0.0 | 0.00 | 0.00 | 0.00 | 66 | 1018.2 |
| 20260502011259 | 44 | 292 | 0.0 | 0.9 | 0.00 | 0.00 | 0.00 | 66 | 1018.2 |
| 20260502010759 | 44 | 292 | 0.0 | 0.9 | 0.00 | 0.00 | 0.00 | 66 | 1018.5 |
| 20260502010258 | 45 | 292 | 0.9 | 1.7 | 0.00 | 0.00 | 0.00 | 66 | 1018.5 |
| 20260502005758 | 45 | 292 | 0.0 | 0.0 | 0.00 | 0.00 | 0.00 | 66 | 1018.5 |
| 20260502005258 | 44 | 292 | 0.0 | 0.0 | 0.00 | 0.00 | 0.00 | 66 | 1018.6 |
| 20260502004757 | 44 | 292 | 0.0 | 0.0 | 0.00 | 0.00 | 0.00 | 66 | 1018.6 |
| 20260502004257 | 44 | 292 | 0.0 | 0.0 | 0.00 | 0.00 | 0.00 | 66 | 1018.6 |
| 20260502003757 | 44 | 292 | 0.0 | 0.0 | 0.00 | 0.00 | 0.00 | 66 | 1018.6 |
| 20260502003257 | 44 | 292 | 0.0 | 0.0 | 0.00 | 0.00 | 0.00 | 66 | 1018.6 |
| 20260502002756 | 44 | 292 | 0.0 | 0.0 | 0.00 | 0.00 | 0.00 | 66 | 1018.6 |